RH
39 38 37 41 43 38 30 26 28 30 30 25 25 24 24 21 17 14 13 13 12 11 9 9 9 9 8 8 11 13 15 16 15 15 15 13 14 17
46 40 37 35 30 30 35 34 34 35 34 35 33 24 18 18 20 22 20 17 14 11 11 10 10 9 9 8 8 8 8 10 12 11 11 11 11 12
55 51 46 39 34 31 29 30 31 33 38 42 42 39 34 24 16 13 12 12 14 15 15 13 10 9 9 9 9 8 8 8 8 8 8 8 8 8
49 49 50 49 46 41 38 31 31 34 34 41 39 36 35 32 21 18 15 12 10 9 9 11 14 14 13 10 10 10 8 8 8 8 8 8 7 7
52 42 46 46 46 45 42 38 34 32 33 35 34 29 25 20 18 14 11 10 10 9 8 8 8 9 11 13 14 10 10 10 9 8 7 7 6 6
55 45 38 37 36 36 35 33 32 34 33 32 31 26 20 16 13 13 12 11 9 8 8 8 7 8 8 8 10 14 14 12 10 9 9 8 7 6
54 45 43 45 41 34 36 34 34 32 31 29 21 18 16 14 13 12 11 10 8 8 7 6 7 7 7 8 7 8 13 18 15 12 10 10 7 6
59 52 46 44 37 31 33 34 34 30 28 22 17 15 14 12 10 9 8 8 8 7 6 6 6 6 6 6 7 7 8 14 17 15 14 11 9 8
45 49 47 38 34 32 30 35 31 26 24 19 16 13 10 9 8 7 6 6 6 6 5 5 4 4 5 5 6 7 8 10 11 17 20 13 11 9
41 36 44 40 31 30 30 36 29 25 19 16 14 11 9 8 7 6 6 5 4 4 4 4 4 4 4 4 5 6 7 9 10 12 23 19 12 13
51 34 33 34 31 25 29 36 28 22 18 15 11 9 7 6 5 5 4 4 5 4 3 2 3 3 3 4 4 5 6 8 9 10 17 22 17 15
52 42 30 34 30 24 30 33 28 22 18 14 10 7 6 5 5 4 4 4 4 4 3 2 2 2 3 3 4 4 5 7 8 10 14 21 27 23
45 42 27 30 28 27 36 29 25 21 16 11 8 7 6 6 4 4 4 4 4 4 4 3 2 2 3 4 2 3 5 6 7 9 13 21 28 26
43 40 29 28 25 30 31 26 20 15 10 8 8 8 8 7 6 5 5 4 4 4 4 3 3 2 2 2 3 2 4 5 6 8 11 17 27 38
42 29 27 26 29 37 31 24 17 12 9 9 8 8 7 6 6 6 5 4 4 4 4 4 3 3 2 2 3 2 2 5 6 6 10 15 24 37
30 23 23 30 39 36 32 22 14 10 10 10 10 8 7 7 6 5 4 4 3 3 3 3 4 3 2 2 2 2 2 4 5 6 8 13 24 35
21 20 27 33 31 33 24 16 11 10 10 10 9 8 8 6 5 4 3 3 3 2 2 3 3 3 2 2 3 2 2 3 5 6 7 11 21 31
18 26 37 33 34 30 19 13 10 10 10 9 8 8 7 5 5 3 3 2 2 2 2 2 2 3 2 2 3 2 2 3 4 5 7 9 16 27
21 34 36 30 35 23 16 12 11 12 11 10 9 8 5 5 4 3 3 3 2 2 2 2 2 2 2 2 3 2 2 3 3 5 6 8 13 23
32 33 29 38 28 18 12 11 12 13 10 10 9 6 5 4 3 4 4 3 3 3 2 2 2 2 2 2 3 3 3 3 4 4 6 8 12 22
26 27 38 35 20 14 12 12 15 12 10 10 7 6 6 4 4 4 4 3 3 3 3 2 2 2 2 2 2 3 3 3 4 4 6 8 10 18
25 32 37 25 16 13 13 16 14 11 11 10 6 6 5 4 4 4 4 4 3 3 3 3 2 2 2 2 2 2 3 4 4 5 5 8 9 15
32 39 29 18 14 13 15 16 13 11 11 9 7 7 5 5 4 4 4 4 4 3 3 3 3 2 2 2 2 2 3 4 4 5 6 7 8 13
Wind_Speed
46 45 44 42 41 39 36 38 41 45 52 56 57 60 63 67 70 74 79 84 86 89 93 95 96 95 98 98 102 109 114 114 113 111 112 109 105 102
53 53 51 50 47 44 44 43 43 46 52 58 59 62 63 67 70 72 74 76 79 81 85 88 89 90 90 90 91 96 102 108 111 111 111 110 107 104
57 58 57 56 56 54 52 50 48 49 52 61 63 64 66 68 71 73 74 76 78 80 80 81 82 83 82 83 84 87 91 95 99 105 106 104 104 101
61 62 62 62 62 61 59 57 55 55 56 60 65 68 70 72 75 76 77 78 79 80 79 80 81 81 81 81 80 81 83 87 89 93 95 96 95 90
67 65 64 65 66 65 65 64 63 61 61 64 66 71 76 78 79 79 80 79 80 80 81 81 81 82 80 79 78 78 78 79 82 83 86 88 87 84
69 69 69 67 67 67 67 66 66 65 66 67 69 73 78 81 82 82 84 84 85 84 84 82 82 83 83 81 80 78 77 77 79 77 76 77 79 80
74 76 74 73 73 71 69 69 69 68 70 71 74 75 77 80 82 84 85 87 89 90 88 86 85 84 85 85 84 79 78 77 77 74 72 73 74 73
75 75 76 77 76 73 71 70 70 71 72 74 77 78 79 81 82 84 84 86 90 92 89 90 88 85 85 86 87 83 78 79 78 74 72 72 69 68
77 75 78 78 77 75 74 72 72 73 74 75 78 81 83 83 81 81 82 84 86 91 90 89 91 85 84 86 86 85 82 81 79 75 71 70 67 66
82 80 79 79 79 77 77 75 75 76 76 77 79 80 81 80 81 82 83 84 86 87 85 85 92 86 85 85 85 85 85 83 82 76 73 70 69 67
84 84 79 79 79 78 76 76 77 78 78 79 79 78 79 80 79 78 79 79 82 85 86 79 84 83 83 85 84 85 88 87 85 77 76 70 67 71
85 85 81 80 80 78 76 77 78 78 79 81 81 80 78 76 76 74 73 74 76 78 84 74 78 77 78 85 83 84 87 89 89 81 79 72 70 73
87 84 82 80 80 78 77 77 77 77 79 80 81 81 78 75 73 71 70 68 69 72 77 69 74 74 71 81 82 83 85 90 91 85 82 77 74 75
86 86 83 81 78 77 77 77 77 78 78 79 80 79 77 76 74 69 67 66 62 64 69 65 69 71 67 74 80 80 80 89 91 88 85 81 78 78
84 83 81 80 78 78 77 77 78 79 78 79 77 74 73 71 69 67 65 60 57 58 58 62 64 68 67 68 74 76 76 85 91 89 87 86 82 82
83 81 77 77 76 76 76 77 78 78 79 78 74 72 69 66 65 63 60 55 53 51 49 51 57 62 64 64 69 75 69 83 89 91 90 89 86 86
79 75 73 72 73 73 75 76 77 78 78 73 70 68 67 65 62 58 56 52 50 48 45 42 52 57 60 59 65 69 68 80 87 90 91 92 90 88
75 72 71 72 71 73 75 77 78 79 74 70 68 65 65 63 58 55 50 47 46 45 43 42 45 53 54 54 61 65 67 73 85 87 91 93 94 90
70 68 69 69 69 72 73 76 79 77 72 69 66 65 62 58 52 50 48 46 43 41 40 41 42 48 50 48 55 60 62 66 80 86 90 94 95 92
66 66 66 65 68 71 73 76 76 72 69 66 64 61 57 51 49 47 44 42 40 38 36 37 38 40 43 43 48 54 59 63 74 85 89 92 94 93
62 62 62 65 68 70 73 75 71 69 65 63 61 55 53 50 47 44 40 37 35 34 34 34 34 35 37 39 43 50 56 60 70 82 86 92 94 95
60 59 61 64 67 70 73 70 66 65 61 60 56 53 50 47 44 39 35 32 30 28 27 28 29 30 31 33 37 46 52 57 66 77 86 91 92 95
58 58 60 62 66 69 69 65 62 59 57 55 52 50 49 45 40 36 33 29 27 25 23 22 23 25 28 30 32 41 50 54 61 74 83 89 92 95
Wind_Direction
313 312 310 310 307 302 296 288 284 282 281 276 271 268 267 266 264 262 262 262 262 261 259 259 259 257 256 254 253 252 253 253 252 253 252 249 248 249
313 311 309 306 302 300 298 292 289 285 284 282 279 274 267 264 264 263 263 263 262 260 259 260 260 259 258 256 254 252 251 250 252 252 251 251 250 248
312 311 309 307 305 302 296 292 290 286 286 286 282 280 278 275 271 267 265 262 262 262 261 261 259 258 256 256 256 254 252 251 251 251 251 251 250 248
311 310 309 308 306 303 300 297 294 291 287 287 281 279 277 276 274 272 270 268 267 265 262 261 260 259 258 256 253 253 252 251 249 249 251 252 251 247
309 310 308 306 305 304 303 300 298 293 291 290 284 279 278 278 278 278 276 273 271 267 263 260 258 257 256 255 254 252 250 251 250 248 247 249 249 247
308 309 308 306 306 304 302 300 299 295 292 290 286 282 280 280 279 278 276 275 273 270 267 263 259 257 255 253 251 251 250 249 248 247 247 247 247 247
309 309 308 308 308 307 306 303 300 297 294 291 286 283 281 280 279 277 275 274 272 270 267 264 262 258 255 254 252 247 248 248 248 248 246 246 244 242
309 309 307 306 306 307 307 303 301 298 295 292 289 287 285 283 281 278 274 271 270 270 268 266 261 257 254 252 251 249 244 245 245 245 244 243 242 240
311 309 307 307 307 307 308 305 302 299 296 294 292 291 289 286 283 280 276 273 270 267 267 265 262 258 254 249 247 247 245 242 242 241 241 240 238 237
311 311 308 307 307 308 307 306 303 301 297 295 294 292 291 289 286 284 281 278 274 270 265 261 262 258 254 250 245 243 242 240 239 237 236 235 233 231
310 311 308 307 308 308 307 306 305 301 299 297 296 295 293 291 288 284 280 277 274 272 269 263 260 256 254 249 243 239 237 236 236 234 234 232 228 225
310 311 309 308 309 308 307 307 306 303 303 302 301 299 297 293 289 285 281 278 274 271 269 265 261 255 250 248 244 237 234 232 233 229 229 228 224 221
310 310 309 308 309 309 308 307 305 305 305 304 304 303 301 297 292 289 284 278 273 270 268 266 261 256 248 248 243 237 231 231 230 227 225 223 221 220
309 309 309 310 310 309 309 308 307 307 307 308 308 306 303 298 295 291 286 281 276 270 269 264 259 256 249 245 244 238 229 229 229 225 223 220 219 219
309 309 309 310 310 311 310 309 310 310 311 310 309 305 300 298 296 293 290 287 281 272 266 263 258 255 250 244 242 238 228 226 227 224 219 219 216 215
309 309 310 310 311 311 310 310 311 312 313 312 310 305 303 301 299 297 294 290 284 278 270 264 258 253 250 244 239 238 226 222 224 222 217 217 214 213
307 309 310 309 311 310 311 312 313 314 314 312 310 308 306 304 303 299 296 292 287 281 273 261 258 252 248 241 237 236 226 220 220 220 216 214 214 212
308 310 309 311 312 312 314 315 316 317 316 315 312 310 308 308 306 302 299 294 288 281 273 263 254 253 248 240 237 233 227 219 218 217 215 213 212 211
310 309 310 312 311 313 315 317 318 318 318 316 314 311 310 311 308 306 304 299 293 285 276 267 257 251 250 241 235 233 228 219 216 215 214 212 211 210
308 309 312 312 313 316 318 319 319 318 318 317 315 314 313 313 314 310 305 299 294 287 279 270 261 255 251 242 232 231 226 218 214 214 213 210 209 209
309 311 312 313 316 319 320 319 320 318 319 319 317 317 319 319 316 313 307 300 294 287 280 271 262 255 248 240 229 227 224 217 212 213 212 209 208 207
310 313 314 316 319 320 320 320 320 319 321 321 320 322 324 322 319 315 311 306 300 291 281 271 262 254 248 238 225 221 222 217 210 211 211 210 208 207
311 313 315 318 319 319 320 321 320 322 323 323 324 327 326 324 322 320 317 312 305 297 287 273 262 252 244 237 223 217 219 214 210 208 210 210 208 206